Wind_Speed
9 11 10 8 8 5 4 3 2 4 4 3 2 1 3 4 7 12 16 21 24 28 31 35 37 39 42 44 46 46 47 47
5 8 9 8 7 7 5 3 2 4 1 1 2 2 5 8 13 18 22 25 28 32 35 39 42 44 46 47 48 49 48 46
4 5 5 5 6 6 4 2 2 2 3 4 4 6 10 14 20 23 27 31 34 37 40 43 45 48 49 51 51 50 48 46
2 1 1 3 4 4 4 3 3 4 6 7 9 11 17 22 26 30 33 37 40 43 46 48 49 50 51 50 48 51 49 49
5 3 2 7 7 7 6 5 7 7 9 10 15 20 23 28 33 36 38 40 44 47 50 51 51 51 50 51 52 53 52 54
8 6 9 11 9 8 9 7 7 9 11 14 21 23 28 33 38 39 41 44 48 51 53 53 53 51 53 51 55 56 56 58
12 12 10 12 10 9 7 8 10 13 16 20 25 29 34 38 41 42 44 49 53 52 51 51 48 50 58 57 57 57 60 62
10 11 13 10 7 8 10 13 15 16 19 24 29 33 37 39 44 45 47 54 54 51 49 52 51 54 61 60 59 62 64 65
10 10 11 11 9 10 15 16 18 22 26 31 35 38 42 43 46 48 52 56 53 53 50 51 54 62 62 61 64 65 65 66
4 5 6 9 10 14 18 19 22 27 32 36 40 42 40 43 48 53 55 54 53 54 57 53 56 60 63 65 66 66 69 72
7 7 10 12 13 16 21 25 30 34 37 41 40 40 42 48 50 52 51 51 53 56 57 57 59 63 64 65 66 70 73 77
12 14 15 16 18 21 25 29 35 38 39 40 42 43 43 45 51 53 52 54 58 58 57 60 63 63 66 68 71 73 75 78
17 18 19 20 24 27 31 35 36 39 39 41 41 42 46 51 52 53 53 59 57 58 60 62 61 64 69 73 76 78 80 81
21 22 22 27 30 32 32 34 34 35 39 38 41 44 51 52 52 53 58 56 58 58 59 61 65 67 72 76 76 78 83 83
22 23 28 30 31 33 35 37 39 39 43 43 45 51 52 48 52 57 56 56 57 58 61 65 69 73 76 77 80 81 84 86
25 28 29 30 33 35 36 38 40 43 45 46 50 51 51 51 53 56 56 56 57 60 64 70 73 73 76 81 80 86 88 85
30 30 32 35 37 40 43 46 46 46 46 47 50 51 52 54 56 56 55 57 57 62 66 73 71 78 79 80 85 87 79 79
32 34 36 38 41 45 47 47 46 46 49 52 52 53 55 54 52 53 55 63 63 69 68 70 76 82 80 82 83 83 77 65
35 37 39 42 45 47 47 47 47 50 52 53 54 51 51 53 54 56 60 57 59 75 67 72 76 77 78 80 77 75 61 58
Wind_Direction
146 145 141 146 149 134 146 103 36 327 335 320 339 240 231 282 290 294 296 293 298 299 302 303 305 306 308 310 312 312 310 308
139 121 111 107 84 78 82 98 5 326 19 130 125 273 282 292 289 285 288 294 299 300 303 307 308 309 311 313 312 309 309 308
116 123 101 70 42 36 24 19 344 270 191 234 247 263 278 283 287 293 297 302 302 305 307 309 310 313 315 311 309 310 310 309
174 355 321 2 358 344 327 285 250 240 227 265 276 287 291 295 297 300 303 305 307 311 312 312 313 312 309 309 310 313 308 309
236 242 278 300 316 313 294 295 287 271 255 271 285 290 293 299 299 301 304 308 310 311 310 311 311 311 311 312 313 313 310 308
230 248 268 287 298 288 283 289 278 274 270 279 284 292 290 295 297 300 305 309 312 311 311 313 313 312 315 314 313 312 309 310
228 240 265 267 271 268 262 251 265 276 287 292 292 292 293 294 298 297 306 311 311 311 313 314 313 315 315 314 310 309 308 307
241 240 237 247 239 248 261 269 273 281 285 289 291 296 298 298 297 299 302 308 311 316 317 319 314 313 311 310 309 308 308 306
244 244 237 229 243 263 273 286 294 299 299 299 302 303 303 298 299 302 303 305 312 313 314 315 307 307 305 305 305 305 304 301
225 243 250 264 275 288 298 302 303 301 300 301 304 306 299 294 298 301 303 305 310 313 308 306 303 300 303 304 305 304 302 300
257 264 272 277 288 295 300 304 300 301 304 307 305 298 291 294 297 299 303 306 307 306 304 303 302 303 304 303 302 301 302 303
256 264 271 284 291 297 299 296 297 300 301 301 300 295 291 293 298 302 303 301 306 305 304 302 301 302 302 303 302 302 304 305
274 276 281 286 292 293 293 293 297 299 297 299 300 294 289 290 298 300 297 303 303 301 300 301 303 305 303 302 303 303 305 308
270 271 269 277 280 282 286 297 302 300 303 299 291 286 287 289 293 292 297 299 298 299 300 302 303 301 301 304 304 306 308 309
267 271 274 280 287 292 299 301 301 297 299 292 285 282 287 289 290 294 296 298 301 303 305 304 303 304 305 305 305 309 311 313
283 282 284 288 293 297 297 292 294 295 289 291 293 298 299 295 293 296 301 303 304 306 307 305 304 306 306 307 307 310 313 316
282 288 293 296 301 303 303 305 304 303 302 301 299 298 297 296 301 302 303 303 304 306 307 307 308 311 311 308 306 311 313 308
291 295 298 300 301 302 305 306 304 303 303 303 302 300 300 301 301 303 302 304 296 304 306 303 302 307 307 306 309 310 307 315
292 295 299 300 301 304 303 303 303 303 301 300 300 298 296 300 301 299 306 306 292 301 301 297 302 305 306 306 307 307 314 319
Height
5784 5786 5786 5787 5788 5789 5790 5789 5788 5788 5787 5787 5787 5788 5789 5789 5790 5789 5787 5788 5785 5783 5780 5777 5773 5769 5764 5758 5751 5745 5741 5735
5785 5785 5785 5786 5788 5786 5787 5787 5787 5787 5786 5785 5786 5787 5787 5787 5786 5786 5784 5781 5779 5777 5774 5769 5764 5759 5753 5747 5741 5737 5732 5725
5782 5783 5783 5783 5783 5783 5784 5783 5783 5783 5783 5784 5784 5783 5783 5783 5782 5779 5777 5775 5772 5769 5764 5759 5754 5748 5741 5737 5732 5726 5720 5714
5783 5782 5782 5781 5779 5780 5780 5780 5781 5779 5780 5780 5780 5779 5778 5777 5775 5772 5769 5767 5763 5759 5753 5748 5743 5738 5734 5728 5722 5716 5709 5703
5782 5781 5781 5780 5777 5775 5776 5777 5776 5775 5776 5775 5775 5774 5772 5770 5768 5765 5762 5758 5754 5749 5744 5739 5735 5729 5723 5716 5709 5704 5697 5692
5778 5777 5777 5777 5774 5772 5773 5773 5772 5772 5773 5772 5772 5769 5768 5765 5762 5758 5754 5750 5745 5740 5735 5730 5724 5718 5710 5704 5698 5692 5684 5678
5774 5774 5773 5773 5772 5771 5770 5770 5769 5769 5769 5768 5767 5765 5763 5759 5755 5750 5745 5740 5736 5730 5725 5719 5712 5705 5698 5693 5686 5680 5673 5666
5768 5769 5769 5769 5769 5769 5768 5767 5766 5766 5766 5764 5762 5759 5756 5752 5746 5740 5735 5730 5725 5719 5713 5707 5700 5693 5687 5680 5673 5667 5660 5653
5765 5764 5763 5765 5765 5765 5765 5764 5762 5761 5758 5756 5753 5750 5746 5740 5735 5730 5725 5720 5713 5707 5701 5694 5689 5682 5675 5668 5661 5654 5647 5639
5761 5760 5760 5761 5761 5760 5758 5758 5757 5755 5752 5749 5745 5741 5735 5731 5725 5720 5715 5710 5703 5697 5691 5684 5678 5670 5663 5657 5650 5642 5633 5625
5758 5757 5758 5758 5757 5756 5755 5750 5749 5746 5743 5739 5737 5733 5727 5722 5716 5711 5705 5699 5693 5686 5679 5673 5666 5659 5653 5645 5636 5627 5619 5610
5755 5755 5755 5753 5751 5750 5748 5746 5744 5740 5736 5732 5729 5724 5719 5713 5708 5701 5694 5688 5681 5675 5669 5662 5655 5647 5638 5630 5621 5613 5604 5594
5749 5749 5747 5747 5746 5744 5743 5740 5737 5732 5728 5724 5719 5714 5709 5703 5696 5690 5684 5678 5671 5664 5658 5650 5642 5633 5623 5614 5606 5598 5588 5578
5745 5745 5744 5743 5741 5739 5736 5733 5729 5725 5720 5716 5712 5705 5699 5693 5687 5681 5675 5669 5662 5654 5645 5636 5628 5619 5610 5600 5590 5579 5569 5559
5740 5739 5737 5735 5732 5728 5726 5722 5719 5716 5712 5707 5702 5696 5689 5682 5676 5671 5664 5657 5648 5640 5632 5622 5613 5605 5596 5585 5573 5562 5552 5542
5732 5730 5728 5725 5722 5719 5716 5712 5710 5706 5701 5696 5690 5684 5677 5671 5664 5657 5651 5643 5635 5628 5620 5609 5600 5590 5579 5568 5558 5547 5535 5526
5722 5721 5718 5715 5711 5708 5704 5701 5698 5695 5689 5685 5678 5670 5664 5656 5650 5644 5637 5630 5622 5615 5606 5595 5583 5571 5562 5552 5542 5532 5522 5513
5713 5710 5706 5704 5701 5698 5695 5691 5686 5682 5677 5670 5663 5657 5651 5645 5638 5632 5625 5618 5609 5600 5591 5580 5569 5559 5548 5538 5528 5519 5509 5498
5703 5701 5699 5696 5693 5690 5685 5679 5675 5670 5664 5659 5652 5645 5639 5632 5626 5619 5612 5604 5596 5585 5576 5565 5556 5545 5534 5524 5514 5504 5495 5487